RS-39
1 38051U 11062C   14288.65876392  .70201582  12497-4  27925-2 0   413
2 38051 051.5964 324.1908 0006422 269.6897 186.8903 16.43533377153081
E-STAR
1 38079U 12006C   14289.43182810  .00197024  12257-4  16407-2 0   239
2 38079 069.4421 027.4219 0274409 178.6686 278.2300 15.34280003141866
GOLIAT
1 38085U 12006J   14289.42155729  .00179787  10344-4  16706-2 0  4590
2 38085 069.4465 037.8656 0309622 183.4878 176.4141 15.25190658141581
HORYU-2
1 38340U 12025D   14289.29954314  .00002484  00000-0  39495-3 0  9967
2 38340 098.2794 248.6669 0013194 146.0117 214.1938 14.72942040129629
RS-40
1 38735U 12041C   14289.30376648 -.00000001  00000-0 -78459-4 0  7139
2 38735 082.4791 212.0189 0017190 355.3448 004.7469 12.42561957100612
PROITERES
1 38756U 12047B   14289.48055665  .00000301  00000-0  52405-4 0  3208
2 38756 098.2269 019.7563 0012063 002.3757 357.7507 14.75168880113056
BEESAT-3
1 39134U 13015E   14288.91994346  .00004203  00000-0  28944-3 0  7399
2 39134 064.8739 116.0604 0035604 286.6747 073.0467 15.06736842 81834
BEESAT-2
1 39136U 13015G   14289.57034304  .00005381  00000-0  36247-3 0  7240
2 39136 064.8740 114.8900 0035570 286.6562 073.1162 15.05935321 81914
LO-75
1 39382U 13064C   14289.44613025  .00815780  26647-3  27268-2 0  4683
2 39382 040.4786 070.9766 0030591 006.5020 353.6204 15.88484781 50936
ZACUBE-1
1 39417U 13066B   14289.13013532  .00002316  00000-0  31458-3 0  4409
2 39417 097.7639 355.5453 0061431 209.4669 150.3075 14.78483525 48569
TRITON-1
1 39427U 13066M   14288.76264274  .00000520  00000-0  94974-4 0  2922
2 39427 097.7518 348.5515 0117053 226.1223 133.0268 14.65689471 48051
DELFIN3XT
1 39428U 13066N   14289.12513374  .00003371  00000-0  58342-3 0  2961
2 39428 097.7512 347.7603 0126956 228.0920 130.9402 14.63781756 48022
GOMX-1
1 39430U 13066Q   14289.11058879  .00001916  00000-0  37010-3 0  9056
2 39430 097.7453 344.5071 0155099 237.5134 121.0994 14.57117325 47827
MO-76
1 39436U 13066W   14289.14161477  .00022369  00000-0  21322-2 0  3758
2 39436 097.7699 001.0380 0024874 206.5069 153.4880 14.93127636 48901
LO-74
1 39440U 13066AA  14288.75903065  .00000939  00000-0  14485-3 0  2870
2 39440 097.7596 352.5569 0083240 216.0111 143.5473 14.73398132 48335
PUCPSAT-1
1 39442U 13066AC  14289.14437232  .00004422  00000-0  49877-3 0  2867
2 39442 097.7696 359.6687 0033894 205.6310 154.3227 14.86659803 47595
SHINAISAT
1 39572U 14009A   14289.48296032  .00131591  12831-4  48391-3 0  3449
2 39572 065.0032 337.7932 0020291 290.1463 069.7516 15.87864434 36213
TEIKYOSAT
1 39576U 14009E   14289.46060317  .00587277  18471-3  63598-3 0  4073
2 39576 064.9958 331.9730 0017341 299.0673 060.8762 16.09302389 36325
CO-77
1 39577U 14009F   14244.78324653  .10543803  76292-5  32273-3 0  3795
2 39577 064.9920 123.7668 0014904 269.7208 091.1897 16.43552757 29380
SPROUT
1 39770U 14029E   14289.47247451  .00000441  00000-0  60983-4 0  1643
2 39770 097.8760 024.7872 0008737 276.2348 083.7870 14.82879967 21515
POPSAT-HIP1
1 40028U 14033U   14289.68947465  .00002859  00000-0  33734-3 0  3663
2 40028 097.9712 184.5507 0012934 259.5632 100.4150 14.85471394 17614
EO-80
1 40032U 14033Y   14289.70785059  .00002948  00000-0  34975-3 0  3555
2 40032 097.9693 184.4683 0011045 256.1368 103.8609 14.85236953 17629
VELOX-1
1 40057U 14034E   14289.76197134  .00002639  00000-0  40609-3 0  3525
2 40057 098.2418 358.8049 0010464 301.1824 058.8331 14.74330479 15995
DAURIA DX 1
1 40071U 14037C   14289.68311191  .00001271  00000-0  17691-3 0  3241
2 40071 098.3899 345.7673 0007671 308.4029 051.6488 14.79675002 14774
UKUBE-1
1 40074U 14037F   14289.75619499  .00002604  00000-0  34590-3 0  3264
2 40074 098.3904 346.0046 0004113 325.7768 034.3143 14.80709609 14793
CHASQUI-1
1 40117U 98067ET  14289.68102146  .00087009  00000-0  11360-2 0  2007
2 40117 051.6467 216.0403 0004992 169.3428 260.9743 15.57917394  9165
